Charlevoix, MI

6:34 PM EDT on September 21, 2017 (GMT -0400)
Charlevoix Municipal

Weather History for KCVX - February, 2013

Change the Weather History Date:

Sunday, February 3, 2013

  Actual Average Record
Temperature  
Mean Temperature 14 °F -  
Max Temperature 18 °F 31 °F 39 °F (2006)
Min Temperature 9 °F 18 °F 4 °F (2014)
Degree Days  
Heating Degree Days 52    
Moisture  
Dew Point 8 °F    
Average Humidity 75    
Maximum Humidity 90    
Minimum Humidity 57    
Precipitation  
Precipitation 0.00 in - - ()
Sea Level Pressure  
Sea Level Pressure 29.88 in    
Wind  
Wind Speed 9 mph (WSW)    
Max Wind Speed 22 mph    
Max Gust Speed 29 mph    
Visibility 5 miles    
Events Snow    
Averages and records for this station are not official NWS values.
T = Trace of Precipitation, MM = Missing Value Source: NWS Daily Summary

Daily Weather History Graph

Daily Weather History Graph

Search for Another Location

Airport or City:

Trip Planner

Search our weather history database for the weather conditions in past years. The results will help you decide how hot, cold, wet, or windy it might be!

Date:

Astronomy

Feb. 03, 2013 Rise Set
Actual Time 7:58 AM EST 5:51 PM EST
Civil Twilight 7:27 AM EST 6:22 PM EST
Nautical Twilight 6:52 AM EST 6:58 PM EST
Astronomical Twilight 6:17 AM EST 7:32 PM EST
Moon 1:26 AM EST (2/3) 11:26 AM EST (2/3)
Length of Visible Light 10h 55m
Length of Day
9h 52m
Waning Gibbous, 49% of the Moon is Illuminated
Feb 3
Waning Gibbous
Feb 10
New
Feb 17
First Quarter
Feb 25
Full
Mar 4
Last Quarter

Hourly Weather History & Observations

Time (EST) Temp. Windchill Dew Point Humidity Pressure Visibility Wind Dir Wind Speed Gust Speed Precip Events Conditions
12:14 AM 11.1 °F 3.1 °F 6.4 °F 81% 30.00 in 5.0 mi SE 4.6 mph - N/A Snow Light Snow
12:40 AM 10.9 °F 2.9 °F 5.9 °F 80% 29.99 in 5.0 mi East 4.6 mph - N/A Snow Light Snow
12:55 AM 10.4 °F 2.2 °F 5.7 °F 81% 29.99 in 10.0 mi ESE 4.6 mph - N/A   Overcast
1:14 AM 9.7 °F 1.4 °F 5.0 °F 81% 29.98 in 10.0 mi ESE 4.6 mph - N/A   Overcast
1:35 AM 9.7 °F -0.1 °F 4.8 °F 81% 29.97 in 5.0 mi SE 5.8 mph - N/A Snow Light Snow
1:54 AM 9.7 °F -0.1 °F 4.6 °F 80% 29.96 in 5.0 mi SE 5.8 mph - N/A Snow Light Snow
2:15 AM 9.5 °F -0.3 °F 4.8 °F 81% 29.95 in 5.0 mi SE 5.8 mph - N/A Snow Light Snow
2:35 AM 9.5 °F 1.2 °F 5.2 °F 83% 29.94 in 3.0 mi SE 4.6 mph - N/A Snow Light Snow
2:55 AM 9.7 °F 1.4 °F 5.9 °F 85% 29.94 in 4.0 mi SE 4.6 mph - N/A Snow Light Snow
3:15 AM 9.9 °F 0.2 °F 5.9 °F 84% 29.93 in 7.0 mi SE 5.8 mph - N/A Snow Light Snow
3:34 AM 9.7 °F -1.3 °F 5.9 °F 85% 29.92 in 10.0 mi SE 6.9 mph - N/A   Overcast
3:55 AM 10.0 °F 1.8 °F 6.1 °F 84% 29.91 in 5.0 mi SE 4.6 mph - N/A Snow Light Snow
4:14 AM 10.4 °F 0.8 °F 6.3 °F 83% 29.90 in 10.0 mi SE 5.8 mph - N/A   Overcast
4:55 AM 12.4 °F 2.0 °F 7.7 °F 82% 29.88 in 7.0 mi South 6.9 mph - N/A Snow Light Snow
5:14 AM 13.1 °F 0.9 °F 7.7 °F 79% 29.88 in 7.0 mi South 9.2 mph - N/A Snow Light Snow
5:35 AM 12.9 °F 1.6 °F 6.8 °F 77% 29.87 in 10.0 mi South 8.1 mph - N/A   Overcast
5:54 AM 12.9 °F 1.6 °F 7.5 °F 79% 29.86 in 5.0 mi South 8.1 mph - N/A Snow Light Snow
6:15 AM 12.9 °F 1.6 °F 8.4 °F 82% 29.85 in 3.0 mi South 8.1 mph - N/A Snow Light Snow
6:35 AM 13.1 °F -0.7 °F 8.8 °F 83% 29.85 in 2.0 mi South 11.5 mph 16.1 mph N/A Snow Light Snow
6:54 AM 12.9 °F -0.9 °F 9.1 °F 85% 29.84 in 1.8 mi South 11.5 mph - N/A Snow Light Snow
7:15 AM 12.9 °F 1.6 °F 9.5 °F 86% 29.85 in 1.5 mi South 8.1 mph - N/A Snow Light Snow
7:34 AM 12.9 °F 2.6 °F 9.9 °F 88% 29.84 in 1.0 mi South 6.9 mph - N/A Snow Snow
7:53 AM 13.5 °F 2.2 °F 10.4 °F 88% 29.85 in 0.8 mi South 8.1 mph - N/A Snow Light Snow
8:15 AM 14.0 °F 2.0 °F 11.1 °F 88% 29.85 in 0.8 mi South 9.2 mph - N/A Snow Light Snow
8:35 AM 14.7 °F 3.8 °F 11.7 °F 88% 29.85 in 0.5 mi South 8.1 mph - N/A Snow Snow
8:54 AM 14.7 °F 3.8 °F 12.0 °F 89% 29.85 in 0.5 mi South 8.1 mph - N/A Snow Snow
9:15 AM 15.1 °F 6.4 °F 12.7 °F 90% 29.84 in 0.5 mi South 5.8 mph - N/A Snow Snow
9:34 AM 15.8 °F 8.6 °F 13.3 °F 90% 29.84 in 0.2 mi SSW 4.6 mph - N/A Snow Snow
9:55 AM 16.3 °F 6.7 °F 13.8 °F 90% 29.83 in 0.5 mi SSW 6.9 mph - N/A Snow Snow
10:15 AM 16.7 °F 8.3 °F 13.1 °F 86% 29.82 in 1.2 mi SW 5.8 mph - N/A Snow Light Snow
10:34 AM 16.7 °F 4.5 °F 13.5 °F 87% 29.81 in 1.0 mi WSW 10.4 mph - N/A Snow Light Snow
10:55 AM 16.7 °F 3.2 °F 12.4 °F 83% 29.81 in 1.2 mi WSW 12.7 mph - N/A Snow Light Snow
11:15 AM 17.2 °F 2.7 °F 12.9 °F 83% 29.81 in 1.2 mi West 15.0 mph - N/A Snow Light Snow
11:34 AM 17.1 °F 3.0 °F 13.1 °F 84% 29.81 in 1.0 mi West 13.8 mph 20.7 mph N/A Snow Light Snow
11:55 AM 16.5 °F 1.8 °F 12.7 °F 85% 29.81 in 0.5 mi West 15.0 mph 23.0 mph N/A Snow Snow
12:15 PM 16.5 °F 2.4 °F 11.5 °F 81% 29.81 in 1.2 mi West 13.8 mph - N/A Snow Light Snow
12:34 PM 17.1 °F 1.5 °F 11.7 °F 79% 29.81 in 1.5 mi WNW 17.3 mph - N/A Snow Light Snow
12:55 PM 16.9 °F 0.8 °F 10.2 °F 75% 29.80 in 4.0 mi WNW 18.4 mph - N/A Snow Light Snow
1:15 PM 17.4 °F 2.4 °F 11.5 °F 78% 29.81 in 3.0 mi West 16.1 mph - N/A Snow Light Snow
1:34 PM 17.6 °F 4.3 °F 9.5 °F 71% 29.81 in 10.0 mi WNW 12.7 mph - N/A   Overcast
1:55 PM 18.1 °F 3.4 °F 9.0 °F 67% 29.81 in 10.0 mi WNW 16.1 mph 19.6 mph N/A   Overcast
2:15 PM 17.6 °F 1.7 °F 11.7 °F 78% 29.81 in 1.8 mi West 18.4 mph 24.2 mph N/A Snow Light Snow
2:34 PM 17.6 °F 3.7 °F 11.1 °F 76% 29.81 in 2.5 mi WNW 13.8 mph 21.9 mph N/A Snow Light Snow
2:55 PM 18.0 °F 3.6 °F 9.0 °F 68% 29.82 in 7.0 mi WNW 15.0 mph 19.6 mph N/A   Overcast
3:14 PM 18.1 °F 2.9 °F 9.5 °F 69% 29.83 in 5.0 mi WNW 17.3 mph 20.7 mph N/A Snow Light Snow
3:35 PM 18.5 °F 6.1 °F 10.9 °F 72% 29.83 in 4.0 mi WNW 11.5 mph 23.0 mph N/A Snow Light Snow
3:55 PM 17.6 °F 2.2 °F 11.1 °F 76% 29.84 in 1.5 mi NW 17.3 mph 24.2 mph N/A Snow Light Snow
4:14 PM 17.8 °F 2.9 °F 9.0 °F 68% 29.85 in 2.5 mi WNW 16.1 mph 25.3 mph N/A   Haze
4:35 PM 17.8 °F 0.7 °F 9.7 °F 71% 29.85 in 3.0 mi NW 21.9 mph 26.5 mph N/A   Haze
4:55 PM 17.2 °F 2.2 °F 9.9 °F 73% 29.86 in 1.5 mi NW 16.1 mph 28.8 mph N/A Snow Light Snow
5:35 PM 16.9 °F 0.3 °F 7.7 °F 67% 29.88 in 3.0 mi NW 19.6 mph 27.6 mph N/A   Haze
5:55 PM 16.7 °F 2.0 °F 7.0 °F 66% 29.88 in 5.0 mi NW 15.0 mph 24.2 mph N/A Snow Light Snow
6:14 PM 16.5 °F 2.4 °F 5.7 °F 63% 29.89 in 7.0 mi WNW 13.8 mph 26.5 mph N/A   Overcast
6:35 PM 15.8 °F -0.2 °F 4.5 °F 61% 29.90 in 10.0 mi WNW 17.3 mph 23.0 mph N/A   Overcast
6:54 PM 15.8 °F 0.3 °F 4.5 °F 61% 29.91 in 7.0 mi WNW 16.1 mph 23.0 mph N/A   Overcast
7:15 PM 15.4 °F 1.6 °F 3.0 °F 58% 29.92 in 7.0 mi WNW 12.7 mph 24.2 mph N/A   Overcast
7:34 PM 15.4 °F -0.6 °F 2.5 °F 57% 29.93 in 10.0 mi NW 17.3 mph 23.0 mph N/A   Overcast
7:55 PM 15.3 °F 1.4 °F 2.7 °F 58% 29.93 in 10.0 mi NW 12.7 mph 24.2 mph N/A   Overcast
8:15 PM 14.9 °F -0.8 °F 3.9 °F 62% 29.94 in 10.0 mi NW 16.1 mph 23.0 mph N/A   Overcast
8:34 PM 14.9 °F -0.3 °F 2.7 °F 58% 29.94 in 10.0 mi NW 15.0 mph 23.0 mph N/A   Overcast
8:55 PM 14.9 °F 0.3 °F 3.4 °F 60% 29.94 in 10.0 mi WNW 13.8 mph 23.0 mph N/A   Overcast
9:14 PM 14.9 °F -0.8 °F 2.3 °F 57% 29.94 in 10.0 mi NW 16.1 mph 20.7 mph N/A   Overcast
9:35 PM 14.7 °F 1.4 °F 3.4 °F 61% 29.94 in 10.0 mi WNW 11.5 mph - N/A   Overcast
9:54 PM 14.7 °F -0.5 °F 3.2 °F 60% 29.95 in 10.0 mi NW 15.0 mph 23.0 mph N/A   Overcast
10:15 PM 14.4 °F -0.4 °F 1.9 °F 58% 29.95 in 10.0 mi NW 13.8 mph 20.7 mph N/A   Overcast
10:35 PM 14.4 °F -0.4 °F 1.8 °F 57% 29.95 in 10.0 mi WNW 13.8 mph 18.4 mph N/A   Overcast
10:54 PM 14.5 °F 1.1 °F 2.7 °F 59% 29.95 in 10.0 mi WNW 11.5 mph 17.3 mph N/A   Overcast
11:15 PM 14.7 °F 0.1 °F 3.2 °F 60% 29.94 in 10.0 mi WNW 13.8 mph 18.4 mph N/A   Overcast
11:34 PM 14.7 °F 0.7 °F 3.2 °F 60% 29.94 in 10.0 mi West 12.7 mph - N/A   Overcast
11:55 PM 14.7 °F 1.4 °F 4.5 °F 64% 29.94 in 10.0 mi WNW 11.5 mph - N/A   Overcast